| time (UTC) | temp C | wind direction | speed KPH | gust KPH | rain 1hr cm | rain 24hr cm | rain mn cm | humidity % | barometer mb |
| 20260510091805 | 16 | 70 | 16.1 | 22.5 | 0.00 | 0.00 | 0.00 | 62 | 1014.0 |
| 20260510090904 | 16 | 68 | 16.1 | 22.5 | 0.00 | 0.00 | 0.00 | 61 | 1014.0 |
| 20260510090004 | 16 | 35 | 14.5 | 19.3 | 0.00 | 0.00 | 0.00 | 63 | 1014.2 |
| 20260510085404 | 16 | 42 | 12.9 | 19.3 | 0.00 | 0.00 | 0.00 | 61 | 1014.0 |
| 20260510084505 | 16 | 69 | 12.9 | 12.9 | 0.00 | 0.00 | 0.00 | 63 | 1014.2 |
| 20260510083603 | 16 | 40 | 12.9 | 16.1 | 0.00 | 0.00 | 0.00 | 65 | 1014.1 |
| 20260510082703 | 15 | 42 | 12.9 | 16.1 | 0.00 | 0.00 | 0.00 | 66 | 1014.5 |
| 20260510081805 | 15 | 60 | 14.5 | 16.1 | 0.00 | 0.00 | 0.00 | 66 | 1014.3 |
| 20260510081117 | 15 | 65 | 12.9 | 16.1 | 0.00 | 0.00 | 0.00 | 67 | 1014.4 |
| 20260510080004 | 15 | 34 | 12.9 | 16.1 | 0.00 | 0.00 | 0.00 | 69 | 1014.5 |
| 20260510075404 | 15 | 52 | 11.3 | 12.9 | 0.00 | 0.00 | 0.00 | 68 | 1014.4 |
| 20260510074505 | 15 | 51 | 11.3 | 11.3 | 0.00 | 0.00 | 0.00 | 70 | 1014.5 |
| 20260510073605 | 14 | 52 | 12.9 | 16.1 | 0.00 | 0.00 | 0.00 | 72 | 1014.5 |
| 20260510072704 | 14 | 62 | 12.9 | 12.9 | 0.00 | 0.00 | 0.00 | 73 | 1014.8 |
| 20260510071805 | 13 | 57 | 12.9 | 19.3 | 0.00 | 0.00 | 0.00 | 74 | 1014.8 |
| 20260510070908 | 13 | 54 | 11.3 | 12.9 | 0.00 | 0.00 | 0.00 | 75 | 1014.8 |
| 20260510070004 | 13 | 44 | 8.0 | 11.3 | 0.00 | 0.00 | 0.00 | 76 | 1014.7 |
| 20260510065617 | 13 | 51 | 9.7 | 11.3 | 0.00 | 0.00 | 0.00 | 77 | 1015.0 |
| 20260510064714 | 12 | 48 | 11.3 | 12.9 | 0.00 | 0.00 | 0.00 | 78 | 1015.0 |
| 20260510063603 | 12 | 50 | 12.9 | 16.1 | 0.00 | 0.00 | 0.00 | 80 | 1014.9 |
| 20260510062703 | 12 | 68 | 11.3 | 11.3 | 0.00 | 0.00 | 0.00 | 80 | 1014.8 |
| 20260510061805 | 12 | 64 | 9.7 | 11.3 | 0.00 | 0.00 | 0.00 | 82 | 1014.7 |
| 20260510061119 | 12 | 39 | 11.3 | 11.3 | 0.00 | 0.00 | 0.00 | 83 | 1015.0 |
| 20260510060004 | 11 | 33 | 9.7 | 12.9 | 0.00 | 0.00 | 0.00 | 85 | 1015.0 |
| 20260510055403 | 11 | 49 | 8.0 | 11.3 | 0.00 | 0.00 | 0.00 | 86 | 1014.8 |
| 20260510054505 | 11 | 44 | 8.0 | 8.0 | 0.00 | 0.00 | 0.00 | 87 | 1014.9 |
| 20260510053605 | 11 | 62 | 9.7 | 12.9 | 0.00 | 0.00 | 0.00 | 88 | 1014.6 |
| 20260510052706 | 11 | 34 | 8.0 | 9.7 | 0.00 | 0.00 | 0.00 | 88 | 1014.8 |
| 20260510051805 | 11 | 50 | 8.0 | 9.7 | 0.00 | 0.00 | 0.00 | 88 | 1015.0 |
| 20260510050905 | 11 | 42 | 8.0 | 9.7 | 0.00 | 0.00 | 0.00 | 88 | 1014.7 |
| 20260510050216 | 11 | 50 | 8.0 | 8.0 | 0.00 | 0.00 | 0.00 | 88 | 1014.9 |
| 20260510045403 | 11 | 49 | 8.0 | 9.7 | 0.00 | 0.00 | 0.00 | 89 | 1014.8 |
| 20260510044503 | 11 | 61 | 6.4 | 6.4 | 0.00 | 0.00 | 0.00 | 89 | 1014.8 |
| 20260510043604 | 11 | 49 | 6.4 | 6.4 | 0.00 | 0.00 | 0.00 | 89 | 1014.6 |
| 20260510042703 | 11 | 63 | 4.8 | 6.4 | 0.00 | 0.00 | 0.00 | 89 | 1014.6 |
| 20260510041805 | 11 | 64 | 4.8 | 4.8 | 0.00 | 0.00 | 0.00 | 89 | 1014.9 |
| 20260510041115 | 11 | 72 | 4.8 | 4.8 | 0.00 | 0.00 | 0.00 | 88 | 1014.7 |
| 20260510040217 | 11 | 56 | 6.4 | 8.0 | 0.00 | 0.00 | 0.00 | 88 | 1014.7 |
| 20260510035405 | 11 | 58 | 6.4 | 8.0 | 0.00 | 0.00 | 0.00 | 87 | 1014.6 |
| 20260510034721 | 11 | 68 | 6.4 | 8.0 | 0.00 | 0.00 | 0.00 | 87 | 1014.9 |
| 20260510033605 | 11 | 63 | 4.8 | 8.0 | 0.00 | 0.00 | 0.00 | 86 | 1014.7 |
| 20260510032706 | 11 | 70 | 6.4 | 6.4 | 0.00 | 0.00 | 0.00 | 86 | 1014.8 |
| 20260510031803 | 11 | 54 | 4.8 | 6.4 | 0.00 | 0.00 | 0.00 | 85 | 1014.9 |
| 20260510030904 | 11 | 77 | 4.8 | 6.4 | 0.00 | 0.00 | 0.00 | 85 | 1014.9 |
| 20260510030006 | 11 | 65 | 4.8 | 6.4 | 0.00 | 0.00 | 0.00 | 84 | 1015.0 |
| 20260510025403 | 11 | 66 | 4.8 | 4.8 | 0.00 | 0.00 | 0.00 | 84 | 1014.7 |
| 20260510024717 | 11 | 60 | 4.8 | 4.8 | 0.00 | 0.00 | 0.00 | 83 | 1015.0 |
| 20260510023603 | 11 | 56 | 3.2 | 4.8 | 0.00 | 0.00 | 0.00 | 83 | 1014.8 |
| 20260510022916 | 11 | 58 | 4.8 | 6.4 | 0.00 | 0.00 | 0.00 | 83 | 1014.8 |
| 20260510021805 | 11 | 74 | 3.2 | 3.2 | 0.00 | 0.00 | 0.00 | 82 | 1015.0 |
| 20260510020905 | 11 | 66 | 3.2 | 4.8 | 0.00 | 0.00 | 0.00 | 81 | 1015.0 |
| 20260510020005 | 11 | 67 | 4.8 | 6.4 | 0.00 | 0.00 | 0.00 | 80 | 1015.2 |
| 20260510015620 | 11 | 65 | 4.8 | 6.4 | 0.00 | 0.00 | 0.00 | 80 | 1015.0 |
| 20260510014503 | 11 | 56 | 3.2 | 4.8 | 0.00 | 0.00 | 0.00 | 79 | 1015.2 |
| 20260510013603 | 11 | 58 | 3.2 | 4.8 | 0.00 | 0.00 | 0.00 | 78 | 1015.1 |
| 20260510012703 | 11 | 61 | 3.2 | 4.8 | 0.00 | 0.00 | 0.00 | 77 | 1015.4 |
| 20260510011805 | 12 | 73 | 3.2 | 4.8 | 0.00 | 0.00 | 0.00 | 76 | 1015.3 |
| 20260510010905 | 12 | 72 | 3.2 | 4.8 | 0.00 | 0.00 | 0.00 | 75 | 1015.1 |
| 20260510010004 | 12 | 51 | 3.2 | 4.8 | 0.00 | 0.00 | 0.00 | 74 | 1015.1 |
| 20260510005405 | 12 | 57 | 3.2 | 3.2 | 0.00 | 0.00 | 0.00 | 74 | 1015.4 |
| 20260510004505 | 12 | 61 | 3.2 | 4.8 | 0.00 | 0.00 | 0.00 | 73 | 1015.2 |
| 20260510003605 | 12 | 61 | 4.8 | 6.4 | 0.00 | 0.00 | 0.00 | 72 | 1015.4 |
| 20260510002704 | 12 | 63 | 4.8 | 6.4 | 0.00 | 0.00 | 0.00 | 71 | 1015.4 |
| 20260510001805 | 12 | 59 | 4.8 | 6.4 | 0.00 | 0.00 | 0.00 | 71 | 1015.4 |
| 20260510000908 | 12 | 51 | 6.4 | 6.4 | 0.00 | 0.00 | 0.00 | 70 | 1015.6 |
| 20260510000215 | 12 | 55 | 4.8 | 4.8 | 0.00 | 0.00 | 0.00 | 71 | 1015.9 |
| 20260509235403 | 12 | 63 | 4.8 | 4.8 | 0.00 | 0.00 | 0.00 | 71 | 1015.7 |
| 20260509234503 | 12 | 62 | 3.2 | 4.8 | 0.00 | 0.00 | 0.00 | 70 | 1015.6 |
| 20260509233603 | 12 | 72 | 3.2 | 6.4 | 0.00 | 0.00 | 0.00 | 70 | 1015.7 |
| 20260509232703 | 13 | 61 | 3.2 | 4.8 | 0.00 | 0.00 | 0.00 | 70 | 1015.9 |
| 20260509232016 | 13 | 60 | 3.2 | 3.2 | 0.00 | 0.00 | 0.00 | 69 | 1015.9 |
| 20260509230905 | 13 | 70 | 3.2 | 4.8 | 0.00 | 0.00 | 0.00 | 68 | 1015.9 |
| 20260509230004 | 13 | 66 | 1.6 | 3.2 | 0.00 | 0.00 | 0.00 | 68 | 1016.0 |
| 20260509225403 | 13 | 75 | 3.2 | 4.8 | 0.00 | 0.00 | 0.00 | 68 | 1016.0 |
| 20260509224507 | 13 | 51 | 3.2 | 4.8 | 0.00 | 0.00 | 0.00 | 68 | 1015.8 |
| 20260509223604 | 13 | 67 | 1.6 | 3.2 | 0.00 | 0.00 | 0.00 | 68 | 1015.9 |
| 20260509222704 | 13 | 54 | 3.2 | 6.4 | 0.00 | 0.00 | 0.00 | 67 | 1015.9 |
| 20260509221804 | 13 | 59 | 4.8 | 6.4 | 0.00 | 0.00 | 0.00 | 66 | 1015.6 |
| 20260509220903 | 13 | 71 | 4.8 | 6.4 | 0.00 | 0.00 | 0.00 | 66 | 1015.9 |
| 20260509220221 | 14 | 72 | 4.8 | 6.4 | 0.00 | 0.00 | 0.00 | 65 | 1016.1 |
| 20260509215403 | 14 | 42 | 4.8 | 6.4 | 0.00 | 0.00 | 0.00 | 65 | 1015.7 |
| 20260509214503 | 14 | 57 | 4.8 | 6.4 | 0.00 | 0.00 | 0.00 | 64 | 1016.0 |
| 20260509213817 | 14 | 68 | 4.8 | 4.8 | 0.00 | 0.00 | 0.00 | 64 | 1016.0 |
| 20260509212705 | 15 | 64 | 4.8 | 8.0 | 0.00 | 0.00 | 0.00 | 64 | 1015.6 |
| 20260509211803 | 15 | 54 | 4.8 | 6.4 | 0.00 | 0.00 | 0.00 | 64 | 1015.8 |
| 20260509210903 | 15 | 64 | 6.4 | 8.0 | 0.00 | 0.00 | 0.00 | 62 | 1015.7 |
| 20260509210004 | 15 | 60 | 4.8 | 9.7 | 0.00 | 0.00 | 0.00 | 63 | 1015.6 |
| 20260509205403 | 15 | 66 | 6.4 | 9.7 | 0.00 | 0.00 | 0.00 | 62 | 1015.5 |
| 20260509204505 | 15 | 74 | 6.4 | 9.7 | 0.00 | 0.00 | 0.00 | 60 | 1015.5 |
| 20260509203603 | 16 | 59 | 6.4 | 8.0 | 0.00 | 0.00 | 0.00 | 60 | 1015.6 |
| 20260509202706 | 16 | 65 | 4.8 | 8.0 | 0.00 | 0.00 | 0.00 | 60 | 1015.7 |
| 20260509201806 | 16 | 61 | 6.4 | 9.7 | 0.00 | 0.00 | 0.00 | 59 | 1015.7 |
| 20260509200905 | 16 | 57 | 4.8 | 8.0 | 0.00 | 0.00 | 0.00 | 59 | 1015.8 |
| 20260509200004 | 16 | 57 | 6.4 | 8.0 | 0.00 | 0.00 | 0.00 | 59 | 1015.6 |
| 20260509195405 | 16 | 50 | 6.4 | 8.0 | 0.00 | 0.00 | 0.00 | 59 | 1015.6 |
| 20260509194503 | 16 | 60 | 4.8 | 6.4 | 0.00 | 0.00 | 0.00 | 60 | 1015.5 |
| 20260509193604 | 16 | 55 | 4.8 | 8.0 | 0.00 | 0.00 | 0.00 | 62 | 1015.2 |
| 20260509192705 | 16 | 40 | 1.6 | 4.8 | 0.00 | 0.00 | 0.00 | 61 | 1015.4 |
| 20260509191804 | 17 | 35 | 1.6 | 4.8 | 0.00 | 0.00 | 0.00 | 61 | 1015.4 |
| 20260509191115 | 17 | 45 | 1.6 | 4.8 | 0.00 | 0.00 | 0.00 | 59 | 1015.4 |
| 20260509190218 | 17 | 49 | 3.2 | 4.8 | 0.00 | 0.00 | 0.00 | 58 | 1015.3 |
| 20260509185614 | 17 | 56 | 1.6 | 4.8 | 0.00 | 0.00 | 0.00 | 57 | 1015.2 |
| 20260509184505 | 18 | 41 | 4.8 | 8.0 | 0.00 | 0.00 | 0.00 | 56 | 1015.1 |
| 20260509183605 | 18 | 36 | 4.8 | 8.0 | 0.00 | 0.00 | 0.00 | 54 | 1015.1 |
| 20260509182704 | 19 | 51 | 4.8 | 6.4 | 0.00 | 0.00 | 0.00 | 52 | 1015.2 |
| 20260509181803 | 19 | 79 | 4.8 | 6.4 | 0.00 | 0.00 | 0.00 | 49 | 1015.2 |
| 20260509180904 | 20 | 83 | 3.2 | 6.4 | 0.00 | 0.00 | 0.00 | 49 | 1015.1 |
| 20260509180005 | 20 | 57 | 6.4 | 8.0 | 0.00 | 0.00 | 0.00 | 48 | 1015.2 |
| 20260509175403 | 20 | 59 | 8.0 | 8.0 | 0.00 | 0.00 | 0.00 | 48 | 1015.1 |
| 20260509174504 | 20 | 63 | 3.2 | 6.4 | 0.00 | 0.00 | 0.00 | 48 | 1014.9 |
| 20260509173605 | 20 | 53 | 4.8 | 6.4 | 0.00 | 0.00 | 0.00 | 47 | 1014.7 |
| 20260509172703 | 20 | 62 | 4.8 | 6.4 | 0.00 | 0.00 | 0.00 | 48 | 1014.9 |
| 20260509172014 | 21 | 54 | 3.2 | 4.8 | 0.00 | 0.00 | 0.00 | 45 | 1014.9 |
| 20260509170903 | 20 | 54 | 4.8 | 6.4 | 0.00 | 0.00 | 0.00 | 44 | 1014.9 |
| 20260509170004 | 20 | 31 | 4.8 | 4.8 | 0.00 | 0.00 | 0.00 | 45 | 1014.8 |
| 20260509165405 | 20 | 31 | 4.8 | 4.8 | 0.00 | 0.00 | 0.00 | 48 | 1014.9 |
| 20260509164511 | 20 | 53 | 4.8 | 6.4 | 0.00 | 0.00 | 0.00 | 46 | 1015.2 |
| 20260509163604 | 21 | 83 | 3.2 | 4.8 | 0.00 | 0.00 | 0.00 | 45 | 1015.1 |
| 20260509162704 | 20 | 78 | 6.4 | 6.4 | 0.00 | 0.00 | 0.00 | 45 | 1015.0 |
| 20260509161805 | 20 | 56 | 6.4 | 6.4 | 0.00 | 0.00 | 0.00 | 47 | 1015.2 |
| 20260509160905 | 21 | 41 | 8.0 | 8.0 | 0.00 | 0.00 | 0.00 | 46 | 1015.0 |
| 20260509155404 | 21 | 71 | 6.4 | 12.9 | 0.00 | 0.00 | 0.00 | 47 | 1015.1 |
| 20260509153605 | 21 | 34 | 1.6 | 3.2 | 0.00 | 0.00 | 0.00 | 42 | 1015.2 |
| 20260509152710 | 20 | 75 | 4.8 | 8.0 | 0.00 | 0.00 | 0.00 | 42 | 1015.2 |
| 20260509152015 | 20 | 99 | 3.2 | 4.8 | 0.00 | 0.00 | 0.00 | 47 | 1015.1 |
| 20260509150903 | 21 | 114 | 1.6 | 4.8 | 0.00 | 0.00 | 0.00 | 47 | 1015.3 |
| 20260509150220 | 21 | 103 | 4.8 | 6.4 | 0.00 | 0.00 | 0.00 | 46 | 1015.1 |
| 20260509145405 | 21 | 72 | 6.4 | 8.0 | 0.00 | 0.00 | 0.00 | 45 | 1015.3 |
| 20260509144503 | 21 | 61 | 9.7 | 12.9 | 0.00 | 0.00 | 0.00 | 45 | 1015.4 |
| 20260509143603 | 21 | 51 | 6.4 | 9.7 | 0.00 | 0.00 | 0.00 | 46 | 1015.4 |
| 20260509142703 | 21 | 35 | 4.8 | 6.4 | 0.00 | 0.00 | 0.00 | 47 | 1015.5 |
| 20260509141805 | 20 | 68 | 6.4 | 8.0 | 0.00 | 0.00 | 0.00 | 48 | 1015.7 |
| 20260509140904 | 20 | 56 | 6.4 | 8.0 | 0.00 | 0.00 | 0.00 | 49 | 1015.7 |
| 20260509140005 | 20 | 17 | 8.0 | 11.3 | 0.00 | 0.00 | 0.00 | 49 | 1015.7 |
| 20260509135618 | 20 | 25 | 8.0 | 11.3 | 0.00 | 0.00 | 0.00 | 48 | 1015.8 |
| 20260509134503 | 21 | 52 | 6.4 | 11.3 | 0.00 | 0.00 | 0.00 | 50 | 1015.8 |
| 20260509133605 | 21 | 43 | 6.4 | 9.7 | 0.00 | 0.00 | 0.00 | 47 | 1015.8 |
| 20260509132919 | 21 | 104 | 6.4 | 8.0 | 0.00 | 0.00 | 0.00 | 46 | 1016.0 |
| 20260509131803 | 21 | 49 | 6.4 | 8.0 | 0.00 | 0.00 | 0.00 | 50 | 1016.3 |
| 20260509130903 | 20 | 57 | 8.0 | 9.7 | 0.00 | 0.00 | 0.00 | 51 | 1016.3 |
| 20260509130005 | 20 | 60 | 8.0 | 9.7 | 0.00 | 0.00 | 0.00 | 48 | 1016.4 |
| 20260509125618 | 20 | 53 | 8.0 | 9.7 | 0.00 | 0.00 | 0.00 | 50 | 1016.3 |
| 20260509124503 | 20 | 67 | 6.4 | 9.7 | 0.00 | 0.00 | 0.00 | 50 | 1016.6 |
| 20260509123603 | 20 | 51 | 8.0 | 11.3 | 0.00 | 0.00 | 0.00 | 51 | 1016.3 |
| 20260509122705 | 20 | 105 | 8.0 | 12.9 | 0.00 | 0.00 | 0.00 | 53 | 1016.6 |
| 20260509121803 | 20 | 56 | 11.3 | 16.1 | 0.00 | 0.00 | 0.00 | 51 | 1016.7 |
| 20260509121115 | 20 | 44 | 8.0 | 16.1 | 0.00 | 0.00 | 0.00 | 51 | 1016.9 |
| 20260509120004 | 19 | 51 | 8.0 | 12.9 | 0.00 | 0.00 | 0.00 | 53 | 1016.9 |
| 20260509115410 | 20 | 53 | 6.4 | 11.3 | 0.00 | 0.00 | 0.00 | 51 | 1017.0 |
| 20260509114527 | 20 | 76 | 8.0 | 11.3 | 0.00 | 0.00 | 0.00 | 49 | 1017.0 |
| 20260509113603 | 20 | 73 | 9.7 | 11.3 | 0.00 | 0.00 | 0.00 | 50 | 1017.3 |
| 20260509112703 | 21 | 59 | 4.8 | 9.7 | 0.00 | 0.00 | 0.00 | 48 | 1017.2 |
| 20260509111805 | 20 | 60 | 9.7 | 12.9 | 0.00 | 0.00 | 0.00 | 50 | 1017.4 |
| 20260509110908 | 20 | 72 | 8.0 | 11.3 | 0.00 | 0.00 | 0.00 | 51 | 1017.4 |
| 20260509110007 | 20 | 47 | 4.8 | 6.4 | 0.00 | 0.00 | 0.00 | 48 | 1017.3 |
| 20260509105614 | 20 | 69 | 6.4 | 9.7 | 0.00 | 0.00 | 0.00 | 51 | 1017.3 |
| 20260509104503 | 20 | 71 | 8.0 | 9.7 | 0.00 | 0.00 | 0.00 | 51 | 1017.5 |
| 20260509103814 | 19 | 71 | 8.0 | 9.7 | 0.00 | 0.00 | 0.00 | 49 | 1017.5 |
| 20260509102703 | 19 | 60 | 9.7 | 12.9 | 0.00 | 0.00 | 0.00 | 52 | 1017.6 |
| 20260509101804 | 19 | 64 | 6.4 | 8.0 | 0.00 | 0.00 | 0.00 | 51 | 1017.7 |
| 20260509100903 | 19 | 72 | 8.0 | 11.3 | 0.00 | 0.00 | 0.00 | 50 | 1017.4 |
| 20260509100006 | 18 | 72 | 9.7 | 12.9 | 0.00 | 0.00 | 0.00 | 52 | 1017.7 |
| 20260509095405 | 19 | 70 | 8.0 | 12.9 | 0.00 | 0.00 | 0.00 | 53 | 1017.6 |
| 20260509094504 | 18 | 63 | 11.3 | 11.3 | 0.00 | 0.00 | 0.00 | 55 | 1017.7 |
| 20260509093604 | 18 | 58 | 9.7 | 12.9 | 0.00 | 0.00 | 0.00 | 55 | 1017.6 |
| 20260509092704 | 18 | 55 | 8.0 | 9.7 | 0.00 | 0.00 | 0.00 | 58 | 1017.9 |